Volver al catálogo

FENGYUN 1C DEB

ActivoPO
NORAD 30177·DEBRIS·🇨🇳 China

Lanzado May 10, 1999 desde Taiyuan Satellite Launch Center

Loading…

Próximos Pases (próximas 24 horas)

TLE

ActualizadoSource: Space-Track

Época: Sep 14, 2026, 05:27 UTC

1 30177U 99025UJ  26257.22771519  .00000769  00000-0  51681-3 0  9995
2 30177  98.6352 175.8350 0446424 132.1903  22.8683 13.63526282972167

Sigue FENGYUN 1C DEB en tiempo real con AllMySat

Download on the App Store